GW5434 Weather Reports


time (UTC)temp
F
wind
direction
speed
knots
gust
knots
rain 1hr
in
rain 24hr
in
rain mn
in
humidity
%
barometer
mb
20260906163024 91 285 1.7 3.5 0.00 0.00 0.00 64 1013.9
20260906161526 90 347 3.5 7.0 0.00 0.00 0.00 67 1013.9
20260906160028 88 296 1.7 5.2 0.00 0.00 0.00 70 1014.0
20260906154507 88 283 2.6 5.2 0.00 0.00 0.00 72 1014.1
20260906153014 87 356 2.6 4.3 0.00 0.00 0.00 73 1014.3
20260906151520 87 274 2.6 5.2 0.00 0.00 0.00 74 1014.4
20260906150029 87 6 0.9 3.5 0.00 0.00 0.00 77 1014.2
20260906144529 85 25 0.9 4.3 0.00 0.00 0.00 78 1014.3
20260906143009 84 293 0.9 3.5 0.00 0.00 0.00 79 1014.1
20260906141515 83 336 0.9 3.5 0.00 0.00 0.00 82 1014.3
20260906140021 82 249 1.7 2.6 0.00 0.00 0.00 83 1014.4
20260906134527 81 262 0.9 3.5 0.00 0.00 0.00 85 1014.5
20260906133041 80 281 0.0 1.7 0.00 0.00 0.00 87 1014.5
20260906131513 80 328 0.0 0.0 0.00 0.00 0.00 88 1014.5
20260906130017 77 259 0.0 0.9 0.00 0.00 0.00 93 1014.2
20260906124524 75 125 0.0 0.0 0.00 0.00 0.00 95 1014.1
20260906123037 73 125 0.0 0.0 0.00 0.00 0.00 95 1014.1
20260906121542 72 125 0.0 0.0 0.00 0.00 0.00 95 1014.2
20260906120012 72 125 0.0 0.0 0.00 0.00 0.00 95 1014.0
20260906114526 72 125 0.0 0.0 0.00 0.00 0.00 95 1013.9
20260906113024 72 125 0.0 0.0 0.00 0.00 0.00 94 1013.7
20260906111529 72 125 0.0 0.0 0.00 0.00 0.00 94 1013.5
20260906110030 72 125 0.0 0.0 0.00 0.00 0.00 95 1013.4
20260906104517 72 125 0.0 0.0 0.00 0.00 0.00 94 1013.2
20260906103021 72 125 0.0 0.0 0.00 0.00 0.00 94 1013.1
20260906101527 72 125 0.0 0.0 0.00 0.00 0.00 95 1013.1
20260906100038 72 125 0.0 0.0 0.00 0.00 0.00 94 1013.0
20260906094532 72 125 0.0 0.0 0.00 0.00 0.00 94 1013.0
20260906093033 72 125 0.0 0.0 0.00 0.00 0.00 94 1012.9
20260906091525 73 125 0.0 0.0 0.00 0.00 0.00 94 1012.7
20260906090030 73 125 0.0 0.0 0.00 0.00 0.00 94 1012.8
20260906084529 73 126 0.0 0.0 0.00 0.00 0.00 94 1012.7
20260906083030 73 127 0.0 0.0 0.00 0.00 0.00 94 1012.6
20260906081539 73 127 0.0 0.0 0.00 0.00 0.00 94 1012.5
20260906071533 73 117 0.0 0.0 0.00 0.00 0.00 93 1012.2
20260906070035 73 117 0.0 0.0 0.00 0.00 0.00 93 1012.3
20260906064526 74 117 0.0 0.0 0.00 0.00 0.00 93 1012.4
20260906063031 74 117 0.0 0.0 0.00 0.00 0.00 93 1012.4
20260906061534 74 117 0.0 0.0 0.00 0.00 0.00 93 1012.3
20260906060031 74 117 0.0 0.0 0.00 0.00 0.00 93 1012.5
20260906054526 74 117 0.0 0.0 0.00 0.00 0.00 92 1012.5
20260906053036 74 117 0.0 0.0 0.00 0.00 0.00 92 1012.6
20260906051531 75 117 0.0 0.0 0.00 0.00 0.00 92 1012.5
20260906050042 75 117 0.0 0.0 0.00 0.00 0.00 92 1012.5
20260906044515 75 117 0.0 0.0 0.00 0.00 0.00 92 1012.6
20260906043002 75 117 0.0 0.0 0.00 0.00 0.00 91 1012.6
20260906041503 75 113 0.0 0.0 0.00 0.00 0.00 91 1012.6
20260906040010 76 128 0.0 0.0 0.00 0.00 0.00 91 1012.7
20260906034523 76 128 0.0 0.0 0.00 0.00 0.00 91 1012.8
20260906033014 76 113 0.0 0.0 0.00 0.00 0.00 90 1013.0
20260906031502 77 116 0.0 0.0 0.00 0.00 0.00 89 1013.1
20260906030007 77 122 0.0 0.0 0.00 0.00 0.00 90 1013.1
20260906024512 77 122 0.0 0.0 0.00 0.00 0.00 89 1013.1
20260906023018 78 119 0.0 0.0 0.00 0.00 0.00 88 1012.9
20260906021519 78 119 0.0 0.0 0.00 0.00 0.00 87 1012.8
20260906020006 79 119 0.0 0.0 0.00 0.00 0.00 86 1012.6
20260906014508 79 122 0.0 0.0 0.00 0.00 0.00 85 1012.4
20260906013014 80 111 0.0 0.0 0.00 0.00 0.00 84 1012.3
20260906011523 81 225 0.0 0.0 0.00 0.00 0.00 81 1012.2
20260906010020 82 152 0.0 0.9 0.00 0.00 0.00 80 1012.2
20260906004505 83 171 0.9 1.7 0.00 0.00 0.00 78 1011.9
20260906003010 84 209 0.0 4.3 0.00 0.00 0.00 77 1011.9
20260906001518 85 120 1.7 6.1 0.00 0.00 0.00 76 1011.9
20260906000024 86 175 3.5 8.7 0.00 0.00 0.00 74 1011.9
20260905234520 88 123 0.0 0.9 0.00 0.00 0.00 74 1011.8
20260905233012 91 140 0.0 0.9 0.00 0.00 0.00 65 1011.7
20260905231515 92 139 0.0 0.9 0.00 0.00 0.00 63 1011.9
20260905230019 93 86 0.0 2.6 0.00 0.00 0.00 62 1011.7
20260905224526 94 327 1.7 3.5 0.00 0.00 0.00 59 1011.7
20260905223031 92 166 1.7 5.2 0.00 0.00 0.00 61 1011.6
20260905221513 93 49 1.7 4.3 0.00 0.00 0.00 59 1011.6
20260905220014 93 27 0.9 6.1 0.00 0.00 0.00 60 1011.5
20260905214524 92 351 0.9 3.5 0.00 0.01 0.00 62 1011.7
20260905213030 93 25 0.9 5.2 0.00 0.01 0.00 60 1012.0
20260905211528 93 91 0.9 5.2 0.00 0.01 0.00 62 1012.1
20260905210013 92 56 2.6 5.2 0.00 0.01 0.00 62 1012.1
20260905204519 92 41 2.6 7.0 0.00 0.01 0.00 63 1012.5
20260905203021 92 155 1.7 5.2 0.00 0.01 0.00 65 1012.7
20260905201530 92 110 3.5 10.4 0.00 0.01 0.00 64 1013.0
20260905200039 92 122 0.9 3.5 0.00 0.01 0.00 66 1012.8
20260905194515 92 104 1.7 4.3 0.00 0.01 0.00 64 1012.9
20260905193022 91 30 0.9 8.7 0.00 0.01 0.00 66 1013.0
20260905191532 91 125 1.7 4.3 0.00 0.01 0.00 66 1013.1
20260905190021 91 89 2.6 6.1 0.00 0.01 0.00 64 1013.4
20260905184511 92 118 0.9 7.0 0.00 0.01 0.00 62 1013.9
20260905183016 91 53 1.7 5.2 0.00 0.01 0.00 67 1014.1
20260905181525 90 333 0.9 2.6 0.00 0.01 0.00 69 1014.1
20260905180026 90 151 0.0 3.5 0.00 0.01 0.00 68 1014.3
20260905174507 89 341 1.7 5.2 0.00 0.01 0.00 70 1014.6
20260905173010 87 328 2.6 5.2 0.00 0.04 0.00 73 1014.8
20260905171517 87 4 2.6 7.0 0.00 0.07 0.00 73 1015.0
20260905170023 88 357 1.7 6.1 0.00 0.07 0.00 73 1015.0
20260905164534 87 21 0.9 8.7 0.00 0.07 0.00 76 1015.0